Stations météo

Publicité
Chartres, France (7143): Température de l'air & dewpoint: 19.06.2017 19:00:00 - 25.06.2017 19:00:00 (CEST)Chartres, France (7143): Température de l'air 5cm: 19.06.2017 19:00:00 - 25.06.2017 19:00:00 (CEST)Chartres, France (7143): Température de l'air -20cm & Température de l'air -100cm: 19.06.2017 19:00:00 - 25.06.2017 19:00:00 (CEST)Chartres, France (7143): Vitesse du vent & gusts: 19.06.2017 19:00:00 - 25.06.2017 19:00:00 (CEST)Chartres, France (7143): Direction du vent: 19.06.2017 19:00:00 - 25.06.2017 19:00:00 (CEST)Chartres, France (7143): reduced air pressure: 19.06.2017 19:00:00 - 25.06.2017 19:00:00 (CEST)Chartres, France (7143): visibility: 19.06.2017 19:00:00 - 25.06.2017 19:00:00 (CEST)Chartres, France (7143): Ensoleillement: 19.06.2017 19:00:00 - 25.06.2017 19:00:00 (CEST)Chartres, France (7143): Quantités de précipitations: 19.06.2017 19:00:00 - 25.06.2017 19:00:00 (CEST)
Date & Time tt [°C] td [°C] tt 5cm [°C] tt -20cm [°C] tt -100cm [°C] ff [km/h] ff [knt] fx [km/h] fx [knt] dd ppp [hPa] vv [km] sd [min] rr [mm]
25.06.2017 19:00:00 26,7 14,5 26,4 21,3 17,5 10 5 37 20 WSW 1014,6 20 38 0,0
25.06.2017 18:00:00 26,6 14,0 26,2 21,1 17,5 16 9 34 19 WSW 1014,8 20 41 0,0
25.06.2017 17:00:00 26,2 14,3 29,1 20,9 17,5 11 6 35 19 W 1015,0 20 52 0,0
25.06.2017 16:00:00 26,0 14,1 27,6 20,7 17,6 13 7 29 16 WSW 1015,7 20 45 0,0
25.06.2017 15:00:00 24,6 13,2 26,4 20,4 17,5 14 8 30 16 WSW 1016,2 20 38 0,0
25.06.2017 14:00:00 24,9 13,8 - - - 9 5 28 15 WSW 1016,6 20 - -
25.06.2017 13:00:00 23,4 13,0 26,6 20,1 17,6 12 6 29 16 W 1016,9 20 50 0,0
25.06.2017 12:00:00 22,7 13,7 22,3 20,0 17,5 12 7 28 15 W 1016,8 20 37 0,0
25.06.2017 11:00:00 21,4 13,8 20,9 20,0 17,6 14 8 25 14 W 1016,7 20 33 0,0
25.06.2017 10:00:00 19,6 13,5 19,6 20,0 17,5 12 7 27 15 W 1016,8 20 25 0,0
25.06.2017 09:00:00 18,4 14,3 18,2 20,0 17,5 10 5 24 13 W 1016,7 20 19 0,0
25.06.2017 08:00:00 17,3 13,8 17,0 20,1 17,6 12 6 26 14 WSW 1016,7 20 0 0,0
25.06.2017 07:00:00 16,9 13,2 15,7 20,2 17,6 11 6 22 12 WSW 1016,4 20 6 0,0
25.06.2017 06:00:00 16,5 12,6 16,1 20,3 17,5 9 5 20 11 WSW 1016,4 20 0 0,0
25.06.2017 05:00:00 17,3 13,0 16,8 20,4 17,5 8 5 22 12 WSW 1016,2 20 0 0,0
25.06.2017 04:00:00 17,4 12,9 16,6 20,5 17,5 10 5 21 11 WSW 1016,3 20 0 0,0
25.06.2017 03:00:00 17,2 12,3 16,0 20,6 17,5 10 5 23 12 WSW 1016,7 20 0 0,0
25.06.2017 02:00:00 17,3 12,0 16,0 20,7 17,5 8 4 20 11 W 1016,6 20 0 0,0
25.06.2017 01:00:00 18,1 11,2 - - - 8 4 24 13 W 1016,9 20 - 0,0
25.06.2017 00:00:00 19,3 11,1 17,8 20,9 17,5 6 3 17 9 W 1016,9 20 0 0,0
24.06.2017 23:00:00 20,7 11,1 18,5 21,0 17,5 8 5 16 9 WSW 1016,7 20 0 0,0
24.06.2017 22:00:00 21,7 11,4 20,1 21,0 17,5 8 4 22 12 WSW 1016,3 20 18 0,0
24.06.2017 21:00:00 23,6 11,3 23,3 21,0 17,5 12 6 26 14 WSW 1015,8 20 60 0,0
24.06.2017 20:00:00 24,6 11,2 24,2 21,0 17,5 13 7 30 16 W 1015,9 20 54 0,0
24.06.2017 19:00:00 25,6 11,4 25,5 20,9 17,5 16 8 30 16 W 1016,1 20 36 0,0
24.06.2017 18:00:00 24,8 11,7 26,1 20,8 17,5 10 6 33 18 W 1016,6 20 37 0,0
24.06.2017 17:00:00 24,2 10,5 26,4 20,7 17,5 15 8 35 19 WSW 1017,0 20 30 0,0
24.06.2017 16:00:00 24,0 12,0 23,4 20,6 17,5 14 8 29 15 SW 1017,6 20 37 0,0
24.06.2017 15:00:00 21,9 11,6 22,4 20,5 17,5 9 5 29 16 W 1018,6 20 0 0,0
24.06.2017 14:00:00 21,7 11,1 23,0 20,5 17,5 10 5 27 15 W 1018,9 20 0 0,0
24.06.2017 13:00:00 21,5 10,6 24,0 20,4 17,5 16 9 30 16 WSW 1019,1 20 19 0,0
24.06.2017 12:00:00 22,0 11,1 22,4 20,4 17,5 16 8 29 15 WSW 1019,2 20 32 0,0
24.06.2017 11:00:00 19,3 11,8 20,4 20,4 17,5 14 8 27 15 SW 1019,9 20 3 0,0
24.06.2017 10:00:00 18,7 11,7 19,2 20,5 17,5 13 7 22 12 SW 1020,3 20 0 0,0
24.06.2017 09:00:00 17,5 11,3 17,8 20,5 17,5 11 6 19 10 SSW 1020,5 20 0 0,0
24.06.2017 08:00:00 16,8 10,9 15,6 20,6 17,5 13 7 23 12 SW 1020,5 20 0 0,0
24.06.2017 07:00:00 15,6 11,0 13,5 20,7 17,5 5 3 9 5 SSW 1020,5 20 0 0,0
24.06.2017 06:00:00 14,7 10,9 12,2 20,8 17,4 0 0 7 4 N 1020,6 20 0 0,0
24.06.2017 05:00:00 15,2 11,4 13,1 21,0 17,4 5 3 8 5 SW 1020,7 20 0 0,0
24.06.2017 04:00:00 14,4 10,6 11,0 21,1 17,4 3 2 4 2 SSW 1020,7 20 0 0,0
24.06.2017 03:00:00 13,6 9,8 8,9 21,3 17,4 3 2 6 3 W 1020,8 20 0 0,0
24.06.2017 02:00:00 14,6 9,6 10,3 21,4 17,4 3 2 8 4 WNW 1020,8 20 0 0,0
24.06.2017 01:00:00 15,9 10,9 10,9 21,6 17,4 4 2 8 4 WNW 1021,1 20 0 0,0
24.06.2017 00:00:00 16,0 10,7 10,8 21,7 17,4 3 1 11 6 NNW 1021,4 20 0 0,0
23.06.2017 23:00:00 16,9 10,7 14,7 21,8 17,4 7 4 19 11 NNW 1021,4 20 0 0,0
23.06.2017 22:00:00 18,3 11,1 16,5 21,9 17,4 9 5 22 12 NNW 1020,9 20 30 0,0
23.06.2017 21:00:00 20,9 11,5 20,4 21,9 17,4 11 6 23 12 NW 1020,2 20 60 0,0
23.06.2017 20:00:00 22,3 11,7 25,0 21,9 17,4 11 6 26 14 NW 1019,9 20 60 0,0
23.06.2017 19:00:00 22,5 11,2 27,9 21,8 17,4 11 6 27 14 NW 1019,8 20 60 0,0
23.06.2017 18:00:00 22,8 11,5 29,3 21,7 17,3 10 5 23 12 WNW 1020,0 20 60 0,0
23.06.2017 17:00:00 23,0 11,4 26,1 21,5 17,3 11 6 27 14 W 1020,1 20 54 0,0
23.06.2017 16:00:00 22,3 12,0 25,0 21,4 17,3 11 6 29 16 WNW 1020,2 20 23 0,0
23.06.2017 15:00:00 22,6 11,9 27,7 21,3 17,3 11 6 26 14 WNW 1020,6 20 53 0,0
23.06.2017 14:00:00 22,9 11,6 25,3 21,1 17,3 12 7 33 18 WNW 1020,7 20 49 0,0
23.06.2017 13:00:00 21,8 12,1 24,1 21,1 17,3 14 7 30 16 WSW 1020,6 20 54 0,0
23.06.2017 12:00:00 19,9 12,2 - - - 13 7 34 18 W 1020,6 20 - 0,0
23.06.2017 11:00:00 18,0 13,1 19,5 21,2 17,3 11 6 24 13 WNW 1020,4 20 0 0,0
23.06.2017 10:00:00 17,6 12,7 18,7 21,3 17,3 12 7 23 12 WNW 1020,4 20 0 0,0
23.06.2017 09:00:00 17,0 12,7 16,7 21,4 17,3 10 5 24 13 WNW 1020,1 20 0 0,0
23.06.2017 08:00:00 16,0 12,5 15,8 21,5 17,3 10 5 26 14 WNW 1020,0 20 0 0,0
23.06.2017 07:00:00 15,6 12,3 15,5 21,7 17,3 13 7 33 18 NW 1019,5 20 9 0,0
23.06.2017 06:00:00 16,5 13,2 16,1 21,8 17,3 5 3 14 8 WNW 1018,6 20 0 0,0
23.06.2017 05:00:00 16,3 13,2 16,0 21,9 17,2 7 4 13 7 NW 1018,3 20 0 0,0
23.06.2017 04:00:00 16,3 12,8 14,9 22,1 17,2 6 3 13 7 NW 1018,3 20 0 0,0
23.06.2017 03:00:00 16,3 13,0 14,2 22,2 17,2 2 1 14 8 N 1017,6 20 0 0,0
23.06.2017 02:00:00 16,7 13,0 15,5 22,4 17,3 6 3 24 13 NNW 1017,5 20 0 0,0
23.06.2017 01:00:00 17,7 13,6 16,8 22,5 17,2 10 5 26 14 NNW 1017,3 20 0 0,0
23.06.2017 00:00:00 18,7 14,0 18,0 22,6 17,2 14 8 26 14 N 1016,8 20 0 0,0
22.06.2017 23:00:00 20,9 16,3 20,1 22,7 17,2 12 7 30 16 N 1015,9 20 0 0,0
22.06.2017 22:00:00 23,3 17,7 21,7 22,8 17,2 10 5 24 13 N 1014,9 20 0 0,0
22.06.2017 21:00:00 25,3 18,0 25,1 22,8 17,2 16 9 30 16 N 1014,2 20 57 0,0
22.06.2017 20:00:00 29,3 18,7 30,8 22,7 17,2 14 8 33 18 NNW 1013,4 20 60 0,0
22.06.2017 19:00:00 32,1 15,1 32,2 22,6 17,1 16 8 37 20 W 1012,7 20 50 0,0
22.06.2017 18:00:00 32,3 16,6 33,0 22,5 17,1 14 7 32 18 W 1012,4 20 29 0,0
22.06.2017 17:00:00 32,4 17,8 - - - 15 8 31 17 W 1012,4 20 - -
22.06.2017 16:00:00 33,6 17,3 35,9 22,2 17,1 14 8 33 18 W 1012,6 20 53 0,0
22.06.2017 15:00:00 32,6 16,4 36,6 21,9 17,1 13 7 34 18 W 1013,0 20 60 0,0
22.06.2017 14:00:00 32,6 16,4 36,7 21,7 17,1 11 6 23 13 W 1012,9 20 60 0,0
22.06.2017 13:00:00 31,8 15,7 35,7 21,6 17,1 12 6 25 13 WSW 1013,3 20 60 0,0
22.06.2017 12:00:00 30,6 17,0 34,6 21,4 17,1 4 2 15 8 W 1013,5 20 60 0,0
22.06.2017 11:00:00 28,9 16,1 32,9 21,4 17,1 2 1 11 6 WNW 1013,5 20 60 0,0
22.06.2017 10:00:00 27,2 17,1 30,9 21,4 17,1 4 2 9 5 NNW 1013,4 20 60 0,0
22.06.2017 09:00:00 25,7 17,4 23,4 21,4 17,1 2 1 11 6 N 1013,4 20 51 0,0
22.06.2017 08:00:00 22,8 18,6 20,9 21,6 17,1 5 3 15 8 NW 1013,6 20 44 0,0
22.06.2017 07:00:00 21,5 18,3 17,3 21,7 17,1 9 5 15 8 WSW 1013,3 20 22 0,0
22.06.2017 06:00:00 20,3 17,5 16,8 21,8 17,1 5 3 8 4 N 1012,6 20 0 0,0
22.06.2017 05:00:00 20,9 17,3 16,6 22,0 17,1 6 3 10 5 N 1012,8 20 0 0,0
22.06.2017 04:00:00 21,2 17,0 16,5 22,1 17,1 3 1 11 6 NW 1013,0 20 0 0,0
22.06.2017 03:00:00 20,8 16,8 16,5 22,3 17,0 6 3 13 7 SSW 1013,3 20 0 0,0
22.06.2017 02:00:00 21,4 17,4 16,6 22,4 17,0 0 0 17 9 N 1013,2 20 0 0,0
22.06.2017 01:00:00 22,1 16,8 16,9 22,5 17,0 3 1 3 2 WNW 1013,3 20 0 0,0
22.06.2017 00:00:00 23,3 16,8 17,6 22,6 17,0 0 0 0 0 N 1013,5 20 0 0,0
21.06.2017 23:00:00 25,8 16,9 19,3 22,7 17,0 3 1 6 3 WNW 1013,4 20 0 0,0
21.06.2017 22:00:00 28,8 16,4 23,2 22,7 17,0 2 1 9 5 W 1012,9 20 8 0,0
21.06.2017 21:00:00 33,4 14,5 30,7 22,7 17,0 4 2 18 10 W 1012,4 20 60 0,0
21.06.2017 20:00:00 34,6 15,5 - - - 8 4 21 11 W 1012,0 20 - -
21.06.2017 19:00:00 35,5 13,6 38,1 22,5 16,9 8 4 19 11 W 1011,7 20 60 0,0
21.06.2017 18:00:00 36,2 15,3 40,9 22,3 16,9 7 4 18 10 WSW 1011,6 20 60 0,0
21.06.2017 17:00:00 36,2 14,2 41,7 22,1 16,9 12 7 24 13 SW 1011,9 20 60 0,0
21.06.2017 16:00:00 35,9 16,1 40,0 21,8 16,9 8 5 24 13 S 1012,2 20 60 0,0
21.06.2017 15:00:00 35,3 17,1 36,7 21,6 16,9 11 6 24 13 S 1012,8 20 53 0,0
21.06.2017 14:00:00 34,8 18,4 39,3 21,3 16,9 12 6 25 14 SSW 1013,3 20 58 0,0
21.06.2017 13:00:00 33,6 19,7 37,9 21,2 16,9 9 5 24 13 SSW 1013,8 20 60 0,0
21.06.2017 12:00:00 32,0 19,9 34,8 21,0 16,9 11 6 22 12 S 1013,8 20 60 0,0
21.06.2017 11:00:00 30,4 19,1 33,1 20,9 16,9 9 5 16 9 S 1014,1 20 60 0,0
21.06.2017 10:00:00 28,5 18,3 29,7 20,9 16,9 5 3 11 6 SSE 1014,2 20 60 0,0
21.06.2017 09:00:00 25,9 17,5 24,2 21,0 16,9 4 2 13 7 SE 1014,3 20 60 0,0
21.06.2017 08:00:00 23,7 16,2 18,6 21,1 16,9 3 2 10 5 SE 1014,5 20 58 0,0
21.06.2017 07:00:00 20,5 15,5 16,5 21,2 16,9 0 0 5 3 N 1014,5 20 3 0,0
21.06.2017 06:00:00 20,6 14,5 16,2 21,4 16,9 3 2 8 4 ENE 1014,5 20 0 0,0
21.06.2017 05:00:00 20,9 14,5 16,6 21,4 16,9 4 2 8 4 ENE 1014,2 20 0 0,0
21.06.2017 04:00:00 21,8 14,9 16,5 21,6 16,9 4 2 9 5 NE 1014,4 20 0 0,0
21.06.2017 03:00:00 21,2 14,6 16,6 21,7 16,9 4 2 8 5 E 1014,7 20 0 0,0
21.06.2017 02:00:00 23,6 15,1 17,7 21,8 16,8 4 2 8 4 NE 1015,1 20 0 0,0
21.06.2017 01:00:00 22,4 15,5 17,6 21,9 16,8 5 3 7 4 E 1015,7 20 0 0,0
21.06.2017 00:00:00 24,3 15,5 19,6 22,0 16,8 0 0 8 5 N 1015,3 20 0 0,0
20.06.2017 23:00:00 27,0 16,0 23,0 22,1 16,8 5 3 13 7 NE 1014,8 20 0 0,0
20.06.2017 22:00:00 28,7 16,6 25,9 22,1 16,8 8 4 21 11 NE 1014,4 20 30 0,0
20.06.2017 21:00:00 30,5 16,9 28,9 22,1 16,8 10 5 18 10 NE 1014,2 20 33 0,0
20.06.2017 20:00:00 31,8 16,9 30,5 22,0 16,8 9 5 20 11 NE 1013,7 20 6 0,0
20.06.2017 19:00:00 33,1 16,0 - - - 13 7 24 13 NE 1013,4 20 - 0,0
20.06.2017 18:00:00 33,7 15,7 34,6 21,7 16,8 9 5 20 11 ENE 1013,6 20 31 0,0
20.06.2017 17:00:00 33,6 16,0 - - - 8 4 22 12 E 1013,9 20 - -
20.06.2017 16:00:00 34,3 15,2 35,6 21,3 16,8 4 2 14 8 S 1014,1 18 40 0,0
20.06.2017 15:00:00 33,6 15,6 36,5 21,0 16,8 4 2 16 9 SE 1014,5 20 45 0,0
20.06.2017 14:00:00 33,5 16,4 37,7 20,7 16,8 9 5 21 11 NNE 1014,7 20 49 0,0
20.06.2017 13:00:00 33,3 15,8 37,9 20,5 16,7 7 4 20 11 E 1015,0 20 60 0,0
20.06.2017 12:00:00 32,3 16,2 34,7 20,4 16,8 6 3 14 7 E 1015,3 20 60 0,0
20.06.2017 11:00:00 30,1 17,2 33,2 20,3 16,8 5 3 11 6 ENE 1015,4 20 60 0,0
20.06.2017 10:00:00 28,0 16,3 28,8 20,3 16,7 3 1 9 5 NE 1015,6 20 49 0,0
20.06.2017 09:00:00 26,0 15,7 24,6 20,3 16,7 4 2 9 5 ESE 1015,9 20 55 0,0
20.06.2017 08:00:00 23,3 15,4 17,5 20,4 16,7 3 2 9 5 E 1015,7 20 56 0,0
20.06.2017 07:00:00 18,6 14,3 14,2 20,6 16,7 3 2 6 3 N 1015,9 20 16 0,0
20.06.2017 06:00:00 17,7 13,8 13,8 20,7 16,7 3 1 6 3 N 1015,8 20 0 0,0
20.06.2017 05:00:00 17,8 13,9 13,4 20,8 16,7 4 2 7 4 N 1015,7 20 0 0,0
20.06.2017 04:00:00 18,8 14,5 13,6 20,9 16,7 4 2 5 3 NNE 1015,7 20 0 0,0
20.06.2017 03:00:00 18,5 15,0 13,9 21,1 16,7 4 2 8 4 NNW 1016,1 20 0 0,0
20.06.2017 02:00:00 18,8 13,9 - - - 0 0 5 3 N 1016,2 20 - -
20.06.2017 01:00:00 20,1 14,9 14,8 21,4 16,7 0 0 5 3 N 1016,3 20 0 0,0
20.06.2017 00:00:00 22,3 14,4 16,6 21,5 16,7 4 2 9 5 NNE 1016,1 20 0 0,0
19.06.2017 23:00:00 25,2 15,8 18,9 21,5 16,6 7 4 9 5 NNE 1015,7 20 0 0,0
19.06.2017 22:00:00 27,6 14,6 21,6 21,6 16,7 5 3 11 6 NE 1015,3 20 28 0,0
19.06.2017 21:00:00 30,7 14,3 27,9 21,5 16,7 6 4 13 7 NE 1014,9 20 60 0,0
19.06.2017 20:00:00 32,0 14,6 33,5 21,4 16,6 6 3 14 8 E 1014,7 20 60 0,0
19.06.2017 19:00:00 32,2 13,4 37,5 21,3 16,6 7 4 17 9 ENE 1014,7 20 60 0,0

tt = Température de l'air
td = dewpoint
tt 5cm = Température de l'air 5cm
tt -20cm = Température de l'air -20cm
tt -100cm = Température de l'air -100cm
ff = Vitesse du vent
fx = gusts
dd = Direction du vent
ppp = reduced air pressure
vv = visibility
sd = Ensoleillement
rr = Quantités de précipitations

stations d'obs. à proximité